Tracking 29892 objects as of 21-Nov-2024
HD Live streaming from Space Station
objects crossing your sky now

COSMOS 249 DEB

Track COSMOS 249 DEB now!
10-day predictions


NORAD ID: 14412
Int'l Code: 1968-091CN
Perigee: 757.6 km
Apogee: 1,917.0 km
Inclination: 62.3 °
Period: 112.3 minutes
Semi major axis: 7708 km
RCS: 0.0074 m2 (small)
Launch date: October 20, 1968
Source: Commonwealth of Independent States (former USSR) (CIS)
Launch site: TYURATAM MISSILE AND SPACE COMPLEX (TTMTR)

Note: This is SATELLITE DEBRIS
Your satellite tracking list
Your tracking list is empty




NASA's NSSDC Master Catalog

Two Line Element Set (TLE):
1 14412U 68091CN  24324.59242296  .00001823  00000-0  23581-2 0  9995
2 14412  62.2963  19.4653 0752071 210.0902 145.4794 12.82818193 14648
Source of the keplerian elements: AFSPC